Location: Doschendorf
(50.0069°N, 11.0602°E)
Time: 10:19:23
(UTC+00:00)

NOSS 3-1 (A) - Pass Details

Date: 17 November 2019
Orbit: 769 x 1443 km, 63.4° (Epoch: 01 December)

Event Time Altitude Azimuth Distance (km) Brightness Sun altitude
Rises 16:40:22 0° 198° (SSW) 3,295 6.8 -11.3°
Reaches altitude 10° 16:42:44 10° 193° (SSW) 2,417 6.0 -11.7°
Maximum altitude 16:48:00 46° 121° (ESE) 1,183 3.7 -12.5°
Enters shadow 16:52:57 15° 53° (NE) 2,384 5.0 -13.2°
